Date,TemperatureHighF,TemperatureAvgF,TemperatureLowF,DewpointHighF,DewpointAvgF,DewpointLowF,HumidityHigh,HumidityAvg,HumidityLow,PressureMaxIn,PressureMinIn,WindSpeedMaxMPH,WindSpeedAvgMPH,GustSpeedMaxMPH,PrecipitationSumIn
2013-1-1,29,23,13,26,19,8,92,86,78,30.19,30.07,5,1,9,0.00
2013-1-2,24,13,4,13,7,2,91,77,57,30.25,30.16,4,1,8,0.00
2013-1-3,32,26,17,28,21,11,87,82,76,30.30,30.16,8,4,12,0.00
2013-1-4,32,23,13,27,18,10,89,83,75,30.32,30.25,10,4,15,0.00
2013-1-5,35,28,18,32,25,16,93,87,77,30.29,30.08,4,2,9,0.00
2013-1-6,36,30,21,33,27,19,92,86,80,30.35,29.97,10,4,19,0.01
2013-1-7,36,24,14,29,21,12,94,87,73,30.40,30.16,7,2,16,0.01
2013-1-8,42,32,23,32,27,21,94,84,67,30.23,30.13,6,1,9,0.11
2013-1-9,48,41,31,39,35,26,87,79,71,30.49,30.11,8,4,13,0.06
2013-1-10,42,35,27,41,31,24,97,85,67,30.50,30.02,7,2,16,0.47
2013-1-11,56,53,46,53,50,45,99,91,81,29.92,29.73,6,3,14,0.87
2013-1-12,60,52,40,54,48,39,96,87,77,29.95,29.77,9,3,18,0.49
2013-1-13,40,31,20,39,30,17,96,94,87,30.24,29.78,9,4,25,1.04
2013-1-14,23,18,15,19,15,12,96,86,82,30.46,30.24,5,1,9,0.01
2013-1-15,30,23,15,24,19,13,93,86,75,30.41,30.13,5,1,14,0.01
2013-1-16,37,29,20,29,24,18,95,82,62,30.13,29.93,8,3,15,0.00
2013-1-17,38,31,22,29,25,17,94,79,59,30.41,30.05,8,2,17,0.01
2013-1-18,39,30,18,30,23,16,94,77,58,30.46,30.07,8,3,18,0.02
2013-1-19,50,43,38,39,34,30,81,70,59,30.08,29.83,11,5,19,0.04
2013-1-20,42,27,19,35,18,11,77,70,61,30.28,29.90,13,7,21,0.03
2013-1-21,17,13,8,12,5,0,86,68,55,30.29,30.15,11,6,17,0.00
2013-1-22,17,11,4,4,2,-1,81,67,52,30.40,30.28,8,4,15,0.00
2013-1-23,24,18,11,17,9,3,80,67,55,30.35,30.10,6,1,13,0.00
2013-1-24,24,19,10,17,9,5,81,65,44,30.60,30.19,8,3,18,0.00
2013-1-25,29,24,20,23,17,9,90,77,57,30.38,30.01,7,2,11,0.03
2013-1-26,31,24,15,20,17,12,89,77,58,30.42,30.10,4,1,8,0.01
2013-1-27,37,29,22,35,25,17,96,83,72,30.40,30.01,5,2,12,0.02
2013-1-28,52,49,37,51,48,36,99,97,95,30.03,29.92,7,3,13,0.06
2013-1-29,64,57,52,60,56,52,99,96,90,29.92,29.33,9,5,17,0.23
2013-1-30,64,44,26,60,42,21,99,94,85,29.63,29.26,15,6,25,0.91
2013-1-31,26,20,10,22,15,5,89,78,72,30.14,29.63,13,9,23,0.01
2013-2-1,20,13,5,14,6,0,80,74,65,30.40,30.14,9,5,18,0.00
2013-2-2,29,22,14,25,19,9,91,86,76,30.22,29.98,6,2,11,0.00
2013-2-3,26,19,10,22,15,7,90,84,77,30.07,29.96,8,2,14,0.00
2013-2-4,39,29,23,32,24,18,86,81,73,30.07,29.78,6,2,12,0.02
2013-2-5,36,30,22,33,26,20,94,87,76,30.04,29.81,8,2,14,0.01
2013-2-6,38,33,30,29,27,25,87,79,65,30.25,30.04,4,1,11,0.00
2013-2-7,52,40,32,43,34,29,95,82,62,30.17,29.80,5,2,18,0.13
2013-2-8,36,32,29,35,30,26,95,90,86,30.36,29.85,8,4,18,0.13
2013-2-9,40,34,29,31,28,25,91,78,65,30.39,30.13,5,1,13,0.00
2013-2-10,52,41,34,50,38,27,96,89,71,30.13,29.62,7,2,16,0.24
2013-2-11,51,38,31,49,32,26,93,79,73,30.04,29.62,17,9,25,0.08
2013-2-12,34,30,25,29,26,23,92,85,81,30.12,29.94,8,3,12,0.00
2013-2-13,47,34,24,35,29,22,96,82,57,29.94,29.74,7,1,12,0.00
2013-2-14,45,38,32,38,33,29,93,84,74,29.98,29.75,10,4,19,0.00
2013-2-15,34,31,26,32,26,19,94,82,58,30.17,29.97,6,2,17,0.03
2013-2-16,26,23,19,21,15,11,82,72,58,30.16,30.11,7,3,15,0.01
2013-2-17,32,22,9,18,11,6,90,66,39,30.22,30.09,4,1,13,0.01
2013-2-18,54,41,27,46,33,17,95,75,64,30.09,29.50,8,4,22,0.24
2013-2-19,46,24,20,45,20,13,95,83,74,30.14,29.53,14,10,25,0.28
2013-2-20,27,19,10,19,13,5,86,77,69,30.33,30.14,7,3,16,0.00
2013-2-21,30,26,17,25,21,13,92,83,76,30.34,29.97,9,3,25,0.00
2013-2-22,36,32,27,34,30,25,97,93,85,29.99,29.82,8,3,21,0.15
2013-2-23,32,28,26,26,14,-100,88,76,75,29.98,29.94,8,4,13,0.09
2013-2-24,39,29,19,30,24,17,93,82,66,30.14,29.98,4,1,9,0.07
2013-2-25,46,34,23,32,28,21,96,79,56,30.15,29.90,7,2,17,0.01
2013-2-26,36,34,33,34,32,28,97,91,74,29.90,29.40,8,4,23,1.14
2013-2-27,34,33,32,34,32,30,98,96,93,29.68,29.47,9,5,14,0.10
2013-2-28,38,34,32,35,32,29,96,92,87,30.01,29.67,9,4,19,0.05
2013-3-1,34,32,29,31,28,26,96,89,83,30.11,29.98,6,3,15,0.01
2013-3-2,32,30,27,28,25,21,88,82,74,30.13,30.09,7,3,15,0.01
2013-3-3,37,28,19,26,21,17,91,77,57,30.13,30.06,5,1,11,0.00
2013-3-4,38,30,20,31,24,18,93,81,59,30.12,29.95,5,2,15,0.01
2013-3-5,36,34,29,34,32,28,96,91,79,29.97,29.70,6,2,15,0.09
2013-3-6,33,31,29,30,29,27,96,93,88,30.28,29.83,4,1,11,0.14
2013-3-7,40,32,26,33,28,23,93,84,65,30.40,30.27,4,1,6,0.41
2013-3-8,42,31,19,30,25,17,95,79,60,30.48,30.34,3,1,9,0.07
2013-3-9,47,40,32,40,34,27,84,78,69,30.34,29.90,5,2,12,0.02
2013-3-10,66,55,43,51,44,-100,86,69,56,29.90,29.69,8,3,16,0.02
2013-3-11,53,43,34,52,41,32,96,92,87,29.84,29.61,12,5,18,0.09
2013-3-12,41,35,31,33,30,26,93,82,63,30.03,29.84,11,7,18,0.01
2013-3-13,35,30,26,28,24,20,90,78,63,30.33,30.02,9,5,18,0.03
2013-3-14,42,31,21,34,25,19,93,81,53,30.34,30.14,6,2,10,0.01
2013-3-15,52,39,28,43,35,27,96,86,65,30.14,29.75,4,1,7,0.00
2013-3-16,46,39,33,42,34,-100,96,86,81,30.08,29.61,9,3,17,0.00
2013-3-17,41,34,31,30,25,-100,83,74,62,30.16,29.97,8,3,15,0.00
2013-3-18,39,35,30,38,33,24,97,91,79,29.97,29.60,12,4,20,0.09
2013-3-19,41,31,23,25,20,16,82,65,46,30.10,29.84,16,9,25,0.01
2013-3-20,33,27,23,24,17,12,81,66,47,30.10,30.03,11,5,21,0.00
2013-3-21,37,26,15,19,15,11,84,65,44,30.05,29.98,6,2,12,0.00
2013-3-22,44,31,17,24,20,15,96,67,40,30.06,29.98,7,1,10,0.00
2013-3-23,47,37,30,30,25,22,76,63,46,30.09,29.94,5,1,12,0.00
2013-3-24,36,32,30,31,28,26,96,86,76,29.95,29.49,10,4,22,0.05
2013-3-25,38,33,29,33,30,28,96,89,76,30.03,29.62,8,5,18,0.38
2013-3-26,42,35,31,33,29,27,89,80,64,30.25,30.03,8,3,15,0.38
2013-3-27,44,35,25,32,27,23,94,76,54,30.33,30.25,5,2,11,0.03
2013-3-28,48,37,24,32,28,22,93,71,48,30.37,30.29,4,1,7,0.00
2013-3-29,56,42,30,40,33,27,91,72,50,30.32,30.22,5,0,9,0.00
2013-3-30,58,44,29,41,35,27,95,71,46,30.23,29.92,4,1,11,0.00
2013-3-31,63,51,45,48,42,-100,96,75,49,29.92,29.73,12,4,18,0.01
2013-4-1,47,39,30,35,24,-100,79,60,39,30.16,29.87,8,3,16,0.01
2013-4-2,48,35,23,24,20,17,86,58,33,30.29,30.16,6,2,16,0.00
2013-4-3,49,36,23,25,21,18,84,57,35,30.44,30.28,6,1,14,0.00
2013-4-4,59,43,27,29,26,23,84,55,27,30.33,29.99,4,1,8,0.00
2013-4-5,58,46,37,39,29,21,79,55,27,30.17,29.98,7,2,16,0.00
2013-4-6,70,54,37,45,36,26,72,52,35,30.14,29.73,10,4,17,0.00
2013-4-7,72,61,49,49,43,-100,86,57,36,29.94,29.71,9,4,18,0.01
2013-4-8,76,62,51,62,54,42,95,77,56,29.95,29.76,13,4,23,0.19
2013-4-9,79,66,55,64,59,54,97,80,53,29.97,29.84,10,2,21,0.17
2013-4-10,72,60,46,67,57,45,98,90,69,29.88,29.72,8,2,19,1.04
2013-4-11,63,55,45,62,54,44,99,97,92,29.78,29.58,8,2,18,1.00
2013-4-12,45,41,38,43,37,33,94,86,78,29.91,29.62,12,6,18,0.10
2013-4-13,49,43,39,39,37,33,93,79,64,30.00,29.90,9,5,17,0.02
2013-4-14,73,56,42,54,45,38,90,69,47,30.00,29.75,5,2,17,0.00
2013-4-15,66,61,57,61,55,48,95,81,64,29.91,29.78,7,3,13,0.05
2013-4-16,57,49,46,55,47,41,97,91,77,30.22,29.90,7,2,21,1.20
2013-4-17,71,54,46,68,50,41,98,86,80,30.22,29.85,9,2,21,0.91
2013-4-18,73,62,49,68,61,48,99,95,83,29.85,29.56,11,3,25,2.79
2013-4-19,47,40,37,46,36,33,97,86,78,29.96,29.58,14,9,23,0.77
2013-4-20,48,38,32,36,30,-100,92,75,54,30.41,29.95,7,3,14,0.04
2013-4-21,55,43,32,36,30,25,88,61,44,30.52,30.36,5,2,16,0.01
2013-4-22,68,53,36,43,37,31,89,57,33,30.36,30.08,5,1,13,0.00
2013-4-23,66,55,42,57,49,41,97,81,62,30.09,29.80,7,1,18,0.92
2013-4-24,49,42,37,43,38,35,96,86,63,30.20,29.85,7,4,16,1.20
2013-4-25,55,45,36,41,35,32,92,70,46,30.35,30.16,13,4,21,0.01
2013-4-26,65,50,35,46,40,32,90,69,47,30.42,30.30,4,1,11,0.00
2013-4-27,67,54,41,54,45,39,96,75,40,30.32,30.01,5,1,14,0.09
2013-4-28,60,56,54,59,55,53,98,96,90,30.01,29.84,3,0,9,0.36
2013-4-29,72,62,53,59,56,52,96,82,61,29.98,29.85,5,1,13,0.01
2013-4-30,84,68,55,65,58,52,92,74,48,29.99,29.88,6,2,11,0.00
2013-5-1,84,71,56,63,58,53,91,67,43,30.15,29.99,4,1,12,0.00
2013-5-2,84,69,55,63,58,48,94,70,43,30.16,30.03,5,1,12,0.00
2013-5-3,75,59,47,65,54,44,97,84,64,30.08,29.88,4,1,12,0.08
2013-5-4,72,63,56,59,54,48,92,73,52,30.01,29.91,7,1,16,0.01
2013-5-5,67,60,54,58,54,51,97,81,60,30.02,29.93,6,1,16,0.01
2013-5-6,72,63,56,58,54,49,85,72,58,29.99,29.91,5,2,17,0.01
2013-5-7,78,65,54,60,55,48,87,70,46,30.02,29.95,4,1,13,0.00
2013-5-8,80,67,53,62,57,51,96,72,45,30.03,29.95,4,0,10,0.00
2013-5-9,77,62,53,64,59,52,98,89,58,30.02,29.84,7,0,12,0.65
2013-5-10,67,57,45,63,54,-100,99,94,84,29.95,29.81,6,1,15,0.60
2013-5-11,66,52,45,57,44,35,96,79,42,30.03,29.86,10,2,16,0.00
2013-5-12,59,48,37,39,34,-100,84,61,39,30.12,30.03,6,2,14,0.00
2013-5-13,67,51,34,43,36,28,100,61,23,30.20,30.08,4,1,9,0.00
2013-5-14,86,67,50,66,54,41,78,62,50,30.08,29.77,4,1,12,0.00
2013-5-15,85,76,68,66,61,56,79,60,46,29.86,29.77,8,2,13,0.00
2013-5-16,83,64,60,67,41,-100,98,78,45,29.96,29.82,2,0,10,0.20
2013-5-17,82,67,61,72,60,-100,98,89,63,30.03,29.96,2,0,9,0.13
2013-5-18,79,69,59,69,64,58,99,86,65,30.07,29.96,3,0,12,0.01
2013-5-19,87,74,61,71,66,60,99,80,56,29.98,29.81,3,0,11,0.01
2013-5-20,84,76,69,73,70,67,96,82,65,29.89,29.78,3,0,13,0.00
2013-5-21,84,73,63,71,67,62,100,81,57,29.83,29.72,5,1,12,0.23
2013-5-22,76,69,64,67,64,59,95,82,66,29.79,29.68,4,0,15,0.09
2013-5-23,63,55,44,61,52,37,94,88,75,30.22,29.78,7,2,22,0.06
2013-5-24,68,52,38,47,41,36,96,68,40,30.39,30.22,5,1,11,0.06
2013-5-25,61,51,39,49,42,36,97,75,44,30.39,30.22,2,0,7,0.02
2013-5-26,65,56,44,57,51,43,97,84,60,30.32,30.14,2,0,7,0.33
2013-5-27,75,63,57,72,62,56,99,97,88,30.15,29.85,4,0,14,2.10
2013-5-28,79,70,62,72,67,62,99,90,76,29.93,29.83,2,0,9,0.53
2013-5-29,84,75,68,72,67,62,92,77,59,29.99,29.90,2,0,9,0.01
2013-5-30,84,74,66,73,69,63,95,83,66,30.01,29.89,3,1,14,0.04
2013-5-31,76,71,65,72,69,64,99,92,85,29.98,29.80,3,0,11,0.25
2013-6-1,74,68,62,71,66,61,99,92,80,29.88,29.75,2,0,8,1.01
2013-6-2,67,61,53,65,58,48,99,92,83,30.04,29.78,4,1,12,0.23
2013-6-3,70,57,46,54,48,43,94,74,46,30.11,30.02,3,1,10,0.01
2013-6-4,75,62,47,58,52,46,98,73,46,30.15,30.07,3,0,10,0.00
2013-6-5,80,68,54,62,56,51,92,69,49,30.08,29.89,3,0,10,0.00
2013-6-6,79,69,59,64,57,49,77,66,52,29.90,29.81,3,1,11,0.00
2013-6-7,76,66,59,63,58,51,92,77,58,29.91,29.84,2,0,9,0.00
2013-6-8,80,65,51,63,55,48,96,73,47,30.00,29.90,2,0,8,0.00
2013-6-9,81,70,59,67,63,56,97,79,53,30.01,29.83,1,0,9,0.03
2013-6-10,79,70,64,69,66,63,99,86,65,29.86,29.76,1,0,7,0.33
2013-6-11,84,73,60,74,66,59,98,82,59,29.96,29.85,1,0,5,0.08
2013-6-12,88,78,69,79,73,68,98,85,71,29.92,29.61,3,0,12,0.07
2013-6-13,78,69,62,70,63,56,98,83,56,30.02,29.63,8,2,18,0.67
2013-6-14,79,66,54,65,59,52,96,79,56,30.11,29.98,3,0,8,0.04
2013-6-15,78,68,59,70,64,58,98,88,72,30.09,29.92,2,0,7,0.00
2013-6-16,79,72,66,72,68,65,96,88,76,29.98,29.91,5,0,13,0.03
2013-6-17,84,73,67,75,70,66,99,89,59,29.97,29.88,0,0,3,0.01
2013-6-18,84,73,64,69,65,60,97,78,55,30.01,29.89,4,1,13,0.00
2013-6-19,81,70,60,66,62,58,95,77,56,30.13,30.01,2,0,9,0.00
2013-6-20,86,72,61,71,65,59,95,80,55,30.17,30.11,1,0,4,0.00
2013-6-22,82,74,70,78,71,65,96,90,77,30.13,30.00,2,0,8,0.57
2013-6-23,84,74,65,76,69,64,99,86,67,30.11,30.01,2,0,5,0.02
2013-6-24,85,75,67,77,71,66,98,88,73,30.12,29.94,4,0,19,0.24
2013-6-25,88,75,67,79,72,66,99,91,71,30.01,29.84,3,0,9,0.38
2013-6-26,80,73,67,76,71,66,100,94,82,29.91,29.73,1,0,6,0.65
2013-6-27,89,78,70,79,73,69,99,85,62,29.81,29.71,2,0,9,0.01
2013-6-28,86,74,65,70,66,62,97,78,50,29.73,29.61,5,1,14,0.18
2013-6-29,71,66,62,69,65,61,99,97,89,29.70,29.59,3,0,11,0.64
2013-6-30,76,67,63,66,58,-100,99,87,68,29.91,29.70,6,1,16,0.78
2013-7-1,77,67,63,68,54,-100,90,78,71,29.99,29.90,6,2,17,0.19
2013-7-2,69,65,61,65,61,58,94,89,80,30.03,29.97,3,1,11,0.00
2013-7-3,75,68,63,70,65,62,99,91,79,30.10,30.00,1,0,5,0.00
2013-7-4,77,67,56,69,63,55,99,88,69,30.14,30.07,1,0,4,0.00
2013-7-5,83,72,65,73,68,63,98,87,66,30.13,30.04,1,0,5,0.00
2013-7-6,73,70,68,72,69,67,99,97,93,30.10,30.02,0,0,3,0.59
2013-7-7,83,73,65,77,70,64,99,92,78,30.08,30.00,1,0,4,0.08
2013-7-8,85,75,68,78,72,67,98,92,79,30.10,30.01,1,0,7,0.01
2013-7-9,88,79,73,81,76,72,97,91,75,30.04,29.92,1,0,4,0.01
2013-7-10,84,75,69,79,71,-100,99,91,79,30.00,29.85,5,0,12,0.44
2013-7-11,80,70,59,66,61,57,96,77,52,30.09,29.99,3,1,13,0.05
2013-7-12,83,68,54,67,60,53,98,79,50,30.15,30.07,2,0,10,0.00
2013-7-13,84,72,59,70,65,58,98,81,60,30.15,30.09,3,0,13,0.00
2013-7-14,90,77,65,77,71,64,98,84,62,30.20,30.13,3,0,8,0.01
2013-7-15,89,79,71,79,74,70,99,87,67,30.29,30.19,1,0,7,0.01
2013-7-16,90,78,69,78,73,68,99,86,65,30.35,30.27,0,0,1,0.00
2013-7-17,91,80,70,79,74,69,99,85,62,30.35,30.20,0,0,2,0.00
2013-7-18,92,81,71,81,76,70,99,86,67,30.22,30.02,0,0,1,0.00
2013-7-19,91,82,73,80,76,72,98,85,67,30.03,29.85,1,0,5,0.00
2013-7-20,87,77,73,78,70,-100,98,86,68,29.94,29.83,2,0,6,0.23
2013-7-21,83,75,67,76,72,66,99,91,77,29.97,29.87,1,0,4,0.01
2013-7-22,84,74,68,75,71,67,99,91,69,29.90,29.78,3,0,8,0.70
2013-7-23,85,74,64,75,69,58,98,85,65,29.95,29.72,5,1,14,0.02
2013-7-24,76,64,54,61,56,52,93,76,53,30.04,29.93,4,1,12,0.01
2013-7-25,78,65,52,65,58,51,98,81,55,30.12,30.04,1,0,5,0.00
2013-7-26,77,67,56,67,62,55,98,86,67,30.10,29.92,1,0,4,0.00
2013-7-27,75,68,57,67,61,51,95,80,59,29.95,29.87,3,0,12,0.00
2013-7-28,71,60,49,58,53,47,95,78,59,30.05,29.93,3,0,9,0.00
2013-7-29,77,63,50,64,56,49,98,81,56,30.18,30.05,0,0,6,0.00
2013-7-30,71,64,56,68,62,55,98,94,87,30.20,30.08,1,0,6,0.10
2013-7-31,76,69,65,74,68,64,99,96,88,30.09,29.95,1,0,6,0.10
2013-8-1,82,69,59,70,62,58,99,81,52,30.01,29.96,3,0,17,0.01
2013-8-2,83,70,57,73,65,55,96,86,69,30.00,29.91,2,0,6,0.01
2013-8-3,83,71,61,72,58,-100,99,79,61,30.10,29.93,4,1,13,0.71
2013-8-4,79,66,54,66,59,53,98,80,54,30.19,30.10,2,0,7,0.10
2013-8-5,77,66,57,69,62,56,98,88,62,30.13,29.92,0,0,3,0.02
2013-8-6,80,71,66,74,69,64,96,91,80,29.95,29.88,1,0,4,0.02
2013-8-7,83,75,69,77,73,68,99,94,83,29.92,29.85,0,0,3,0.00
2013-8-8,76,72,68,74,70,65,98,95,90,29.98,29.91,1,0,8,0.26
2013-8-9,83,72,62,69,65,60,96,81,55,30.04,29.96,3,0,7,0.05
2013-8-10,84,74,65,73,67,64,98,82,56,30.11,30.04,2,0,8,0.00
2013-8-11,84,70,59,72,65,58,98,84,56,30.13,30.06,2,0,7,0.00
2013-8-21,88,75,64,74,69,63,99,83,60,30.14,30.03,0,0,3,0.00
2013-8-22,75,72,69,72,69,68,97,92,84,30.14,30.02,2,0,9,0.00
2013-8-23,83,70,63,71,66,62,99,89,62,30.16,30.08,2,0,6,0.00
2013-8-24,86,70,57,66,60,56,98,76,42,30.27,30.16,2,0,8,0.00
2013-8-25,87,69,57,69,60,-100,98,78,50,30.30,30.21,0,0,2,0.00
2013-8-26,90,74,62,76,69,61,98,84,59,30.23,30.06,0,0,3,0.00
2013-8-27,90,76,69,79,72,68,98,89,66,30.08,29.97,1,0,2,0.00
2013-10-2,77,68,62,71,66,61,99,95,83,30.10,30.01,0,0,3,0.01
2013-10-3,79,70,66,74,68,65,99,93,82,30.03,29.91,0,0,3,0.37
2013-10-4,84,72,65,74,69,64,98,89,69,30.02,29.96,0,0,4,0.23
2013-10-5,78,70,66,74,69,66,99,96,83,30.00,29.85,1,0,4,0.31
2013-10-6,66,58,47,66,54,42,99,87,63,29.85,29.71,3,0,7,0.01
2013-10-7,66,51,45,53,47,43,97,87,56,30.12,29.81,2,0,7,0.07
2013-10-8,75,56,46,57,50,45,98,83,46,30.24,30.12,2,0,4,0.06
2013-10-9,73,56,43,54,49,42,98,81,47,30.25,30.14,2,0,9,0.00
2013-10-10,75,57,45,60,52,44,98,85,57,30.19,30.07,1,0,4,0.00
2013-10-11,77,59,46,59,51,45,98,80,43,30.11,30.00,1,0,5,0.00
2013-10-12,76,63,51,65,58,49,97,84,65,30.14,30.01,1,0,6,0.00
2013-10-13,70,56,45,56,42,-100,93,64,34,30.37,30.14,3,0,8,0.00
2013-10-14,67,50,39,50,44,37,97,80,48,30.38,30.18,2,0,9,0.00
2013-10-15,65,57,47,63,55,45,98,94,91,30.17,29.86,1,0,7,0.07
2013-10-18,61,47,41,50,43,40,98,88,67,29.99,29.90,2,0,7,0.01
2013-10-19,54,46,42,46,41,37,97,84,56,29.98,29.85,2,0,8,0.20
2013-10-20,63,51,39,49,41,-100,94,74,56,29.95,29.83,3,0,13,0.01
2013-10-21,56,49,36,48,43,29,91,79,64,30.01,29.88,1,0,5,0.00
2013-10-22,50,37,27,40,33,26,95,87,59,30.02,29.88,2,0,9,0.30
2013-10-23,46,39,33,40,35,32,97,85,69,30.05,29.87,2,0,6,0.10
2013-10-24,44,40,36,38,33,28,95,79,57,30.30,30.04,3,0,11,0.01
2013-10-25,50,40,26,34,31,24,93,71,51,30.44,30.21,1,0,5,0.01
2013-10-26,58,44,35,43,34,29,85,70,51,30.21,29.89,3,1,9,0.00
2013-10-27,56,40,29,39,31,-100,96,74,46,30.11,30.02,1,0,3,0.00
2013-10-28,61,41,30,40,32,-100,97,78,43,30.30,30.07,2,0,4,0.00
2013-10-29,58,46,36,48,41,34,96,86,64,30.34,30.17,1,0,7,0.02
2013-10-30,63,56,49,63,55,48,99,98,95,30.17,29.89,1,0,6,0.07
2013-12-26,36,30,19,29,24,16,94,81,69,30.34,30.14,7,3,13,0.00
2013-12-27,45,35,29,35,26,-100,91,78,68,30.34,30.19,4,1,7,0.00
2013-12-28,52,41,34,39,30,-100,89,75,60,30.19,29.92,5,2,10,0.00
2013-12-29,39,34,25,34,30,22,94,86,76,30.10,29.80,7,2,17,0.01
2013-12-30,24,19,14,21,14,10,87,81,73,30.31,30.11,3,1,11,0.01
2013-12-31,26,20,13,19,16,10,88,82,74,30.37,30.16,5,2,11,0.00
2014-1-1,30,25,21,25,21,17,92,86,82,30.24,30.07,4,1,9,0.00